GW2967 Weather Reports


Display with metric or nautical units.
time (UTC)temp
F
wind
direction
speed
MPH
gust
MPH
rain 1hr
in
rain 24hr
in
rain mn
in
humidity
%
barometer
mb
20260510224541 60 0 0.0 0.0 0.00 0.01 0.01 63 1014.2
20260510223031 61 0 0.0 0.0 0.00 0.01 0.01 61 1014.0
20260510221530 61 0 0.0 1.0 0.00 0.01 0.01 61 1014.1
20260510220028 61 0 0.0 2.0 0.00 0.01 0.01 61 1014.0
20260510214527 62 236 0.0 3.0 0.00 0.01 0.01 56 1014.1
20260510213032 62 266 0.0 1.0 0.00 0.01 0.01 54 1014.2
20260510211531 64 0 0.0 2.0 0.00 0.01 0.01 52 1014.0
20260510210028 65 0 0.0 1.0 0.00 0.01 0.01 53 1013.9
20260510204530 66 210 1.0 3.0 0.00 0.01 0.01 49 1013.5
20260510203034 66 15 0.0 2.0 0.00 0.01 0.01 51 1013.3
20260510201528 65 0 0.0 3.0 0.00 0.01 0.01 53 1013.4
20260510200029 64 0 0.0 1.0 0.00 0.01 0.01 57 1013.6
20260510194539 63 0 0.0 1.0 0.00 0.04 0.01 57 1013.6
20260510193030 62 0 0.0 0.0 0.00 0.04 0.01 61 1013.6
20260510191528 62 0 0.0 0.0 0.00 0.04 0.01 61 1013.8
20260510190030 62 0 0.0 1.0 0.00 0.04 0.01 60 1013.9
20260510184532 62 0 0.0 1.0 0.00 0.12 0.01 59 1014.0
20260510183031 62 0 0.0 1.0 0.00 0.12 0.01 59 1013.9
20260510181530 63 0 0.0 1.0 0.01 0.12 0.01 59 1014.1
20260510180029 63 0 0.0 3.0 0.01 0.12 0.01 59 1013.9
20260510174530 63 0 0.0 1.0 0.01 0.21 0.01 58 1013.9
20260510173030 63 230 0.0 4.0 0.01 0.21 0.01 55 1014.0
20260510171531 64 98 0.0 5.0 0.00 0.20 0.00 54 1014.1
20260510170030 66 309 2.0 5.0 0.00 0.20 0.00 49 1013.8
20260510164530 66 321 0.0 3.0 0.00 0.28 0.00 52 1013.7
20260510163030 65 105 0.0 2.0 0.00 0.28 0.00 50 1013.7
20260510161532 66 171 0.0 2.0 0.00 0.28 0.00 48 1013.6
20260510160035 67 233 1.0 4.0 0.00 0.28 0.00 45 1013.3
20260510154530 68 240 0.0 8.0 0.00 0.30 0.00 45 1013.1
20260510153034 68 212 1.0 5.0 0.00 0.30 0.00 47 1013.3
20260510151530 67 0 0.0 2.0 0.00 0.30 0.00 51 1013.0
20260510150040 66 224 2.0 7.0 0.00 0.30 0.00 49 1013.0
20260510144535 66 234 0.0 4.0 0.00 0.30 0.00 49 1013.0
20260510143028 67 96 1.0 3.0 0.00 0.30 0.00 49 1012.6
20260510141533 66 250 0.0 3.0 0.00 0.30 0.00 51 1012.7
20260510140029 65 37 0.0 3.0 0.00 0.30 0.00 53 1012.6
20260510134529 64 219 0.0 2.0 0.00 0.32 0.00 54 1012.4
20260510133028 62 0 0.0 1.0 0.00 0.32 0.00 59 1012.5
20260510131530 60 0 0.0 1.0 0.00 0.32 0.00 62 1012.5
20260510130030 57 198 0.0 1.0 0.00 0.32 0.00 67 1012.4
20260510124531 55 0 0.0 1.0 0.00 0.33 0.00 69 1012.8
20260510123030 54 0 0.0 1.0 0.00 0.33 0.00 70 1012.9
20260510121528 52 0 0.0 1.0 0.00 0.33 0.00 70 1012.6
20260510120031 51 0 0.0 1.0 0.00 0.33 0.00 70 1012.5
20260510114536 50 0 0.0 0.0 0.00 0.33 0.00 70 1012.5
20260510113031 50 0 0.0 0.0 0.00 0.33 0.00 70 1012.2
20260510111528 49 0 0.0 0.0 0.00 0.33 0.00 70 1012.0
20260510110031 49 0 0.0 0.0 0.00 0.33 0.00 71 1011.7
20260510104534 49 0 0.0 0.0 0.00 0.33 0.00 70 1011.6
20260510103028 48 0 0.0 0.0 0.00 0.33 0.00 71 1011.4
20260510101528 48 0 0.0 0.0 0.00 0.33 0.00 70 1011.2
20260510100029 48 0 0.0 0.0 0.00 0.33 0.00 70 1011.2
20260510094538 48 0 0.0 0.0 0.00 0.33 0.00 70 1011.4
20260510093028 48 0 0.0 0.0 0.00 0.33 0.00 71 1011.2
20260510091530 48 0 0.0 0.0 0.00 0.33 0.00 71 1011.2
20260510090028 47 0 0.0 0.0 0.00 0.33 0.00 70 1010.8
20260510084527 48 0 0.0 0.0 0.00 0.33 0.00 70 1010.8
20260510083028 48 0 0.0 0.0 0.00 0.33 0.00 70 1010.7
20260510081538 49 0 0.0 1.0 0.00 0.33 0.00 70 1010.4
20260510080032 49 0 0.0 0.0 0.00 0.33 0.00 70 1010.6
20260510074529 49 0 0.0 1.0 0.00 0.33 0.00 70 1010.7
20260510073030 49 0 0.0 0.0 0.00 0.33 0.00 70 1010.8
20260510071531 49 0 0.0 0.0 0.00 0.33 0.00 70 1010.9
20260510070035 49 0 0.0 0.0 0.00 0.33 0.00 70 1011.1
20260510064530 49 0 0.0 1.0 0.00 0.33 0.00 70 1011.3
20260510063029 49 0 0.0 3.0 0.00 0.33 0.00 70 1011.4
20260510061531 48 0 0.0 0.0 0.00 0.33 0.00 70 1011.2
20260510060031 48 0 0.0 0.0 0.00 0.33 0.00 70 1011.1
20260510054535 48 0 0.0 0.0 0.00 0.33 0.00 70 1011.2
20260510053029 48 0 0.0 0.0 0.00 0.33 0.00 70 1011.3
20260510051535 48 0 0.0 0.0 0.00 0.33 0.00 70 1011.4
20260510050031 48 0 0.0 0.0 0.00 0.33 0.00 70 1011.2
20260510044536 48 0 0.0 0.0 0.00 0.33 0.00 70 1011.1
20260510043030 47 0 0.0 0.0 0.00 0.33 0.00 70 1010.9
20260510041538 47 0 0.0 0.0 0.00 0.33 0.00 70 1010.9
20260510040030 47 0 0.0 1.0 0.00 0.33 0.00 70 1010.7
20260510034529 47 0 0.0 0.0 0.00 0.33 0.33 70 1010.8
20260510033030 46 0 0.0 0.0 0.00 0.33 0.33 70 1010.7
20260510031546 46 0 0.0 0.0 0.00 0.33 0.33 70 1010.5
20260510030036 46 0 0.0 0.0 0.00 0.33 0.33 69 1010.5
20260510024530 47 0 0.0 0.0 0.00 0.33 0.33 69 1010.6
20260510023028 47 0 0.0 0.0 0.00 0.33 0.33 69 1010.4
20260510021532 47 0 0.0 0.0 0.00 0.33 0.33 69 1010.2
20260510020028 47 0 0.0 0.0 0.00 0.33 0.33 68 1010.4
20260510014528 48 0 0.0 0.0 0.00 0.33 0.33 68 1010.2
20260510013030 48 0 0.0 0.0 0.00 0.33 0.33 68 1010.3
20260510011530 48 0 0.0 0.0 0.00 0.33 0.33 67 1010.1
20260510010030 49 0 0.0 0.0 0.00 0.33 0.33 66 1010.0
20260510004528 50 0 0.0 0.0 0.00 0.33 0.33 66 1009.7
20260510003031 50 0 0.0 0.0 0.00 0.33 0.33 67 1009.6
20260510001530 51 0 0.0 0.0 0.00 0.33 0.33 68 1009.7
20260510000030 52 0 0.0 0.0 0.00 0.33 0.33 68 1009.4
20260509234533 53 0 0.0 0.0 0.00 0.33 0.33 68 1009.2
20260509233030 53 0 0.0 0.0 0.00 0.33 0.33 68 1009.2
20260509231528 54 0 0.0 0.0 0.00 0.33 0.33 68 1009.0
20260509230033 55 0 0.0 0.0 0.00 0.33 0.33 67 1009.1